Weather History for Vancouver, BC

Change the Weather History Date:

Friday, December 13, 2013

  Actual Average Record
Temperature  
Mean Temperature 38 °F -  
Max Temperature 43 °F 43 °F 55 °F (1998)
Min Temperature 34 °F 34 °F 23 °F (2000)
Degree Days  
Heating Degree Days 26    
Moisture  
Dew Point 40 °F    
Average Humidity 96    
Maximum Humidity 100    
Minimum Humidity 93    
Precipitation  
Precipitation 0.16 in - - ()
Sea Level Pressure  
Sea Level Pressure 30.31 in    
Wind  
Wind Speed 6 mph ()    
Max Wind Speed 9 mph    
Max Gust Speed -    
Visibility 5.4 miles    
Events Rain    
Averages and records for this station are not official NWS values.
T = Trace of Precipitation, MM = Missing Value Source: Averaged Metar Reports

Daily Weather History Graph

Daily Weather History Graph

Search for Another Location

Airport:

Trip Planner

Search our weather history database for the weather conditions in past years. The results will help you decide how hot, cold, wet, or windy it might be!

Date:

Astronomy

Dec. 13, 2013 Rise Set
Actual Time 7:59 AM PST 4:14 PM PST
Civil Twilight 7:22 AM PST 4:51 PM PST
Nautical Twilight 6:41 AM PST 5:32 PM PST
Astronomical Twilight 6:02 AM PST 6:11 PM PST
Moon 2:13 PM PST 4:14 AM PST
Length of Visible Light 9h 29m
Length of Day
8h 14m
Waxing Gibbous, 88% of the Moon is Illuminated
Dec 13
Waxing Gibbous
Dec 17
Full
Dec 25
Last Quarter
Jan 1
New
Jan 7
First Quarter

Hourly Weather History & Observations

Time (PST) Temp. Windchill Dew Point Humidity Pressure Visibility Wind Dir Wind Speed Gust Speed Precip Events Conditions
12:00 AM 39.2 °F 35.0 °F 37.4 °F 93% 30.13 in 3.0 mi East 5.8 mph - N/A Rain Light Rain
1:00 AM 39.2 °F 35.9 °F 39.2 °F 100% 30.15 in 3.0 mi East 4.6 mph - N/A Rain Light Rain
1:12 AM 39.2 °F 35.9 °F 39.2 °F 100% 30.15 in 2.5 mi East 4.6 mph - N/A Rain Light Rain
2:00 AM 39.2 °F 35.9 °F 37.4 °F 93% 30.17 in 2.2 mi East 4.6 mph - N/A Rain Light Rain
2:22 AM 39.2 °F 35.9 °F 39.2 °F 100% 30.18 in 3.0 mi East 4.6 mph - N/A   Light Drizzle
2:48 AM 39.2 °F 35.0 °F 37.4 °F 93% 30.19 in 2.5 mi East 5.8 mph - N/A   Light Drizzle
3:00 AM 39.2 °F 35.9 °F 37.4 °F 93% 30.20 in 2.5 mi East 4.6 mph - N/A   Light Drizzle
4:00 AM 39 °F - 38 °F 95% 30.19 in 2 mi East 8.1 mph - - Rain Light Drizzle
4:00 AM 39.2 °F 34.2 °F 37.4 °F 93% 30.19 in 2.5 mi East 6.9 mph - N/A   Light Drizzle
4:51 AM 39.2 °F 33.6 °F 37.4 °F 93% 30.20 in 3.0 mi East 8.1 mph - N/A   Overcast
5:00 AM 39.2 °F 33.6 °F 39.2 °F 100% 30.20 in 3.0 mi East 8.1 mph - N/A   Overcast
5:45 AM 39.2 °F 34.2 °F 39.2 °F 100% 30.22 in 3.0 mi East 6.9 mph - N/A   Light Drizzle
6:00 AM 39.2 °F 34.2 °F 39.2 °F 100% 30.23 in 3.0 mi East 6.9 mph - N/A   Light Drizzle
7:00 AM 39.2 °F - 39.2 °F 100% 30.26 in 3.0 mi East 2.3 mph - N/A   Light Drizzle
8:00 AM 39.2 °F 35.9 °F 39.2 °F 100% 30.27 in 3.0 mi East 4.6 mph - N/A   Light Drizzle
8:41 AM 39.2 °F 34.2 °F 39.2 °F 100% 30.28 in 10.0 mi East 6.9 mph - N/A   Overcast
9:00 AM 41.0 °F 36.4 °F 39.2 °F 93% 30.29 in 12.0 mi East 6.9 mph - N/A   Overcast
10:00 AM 41 °F - 40 °F 97% 30.32 in 7 mi East 6.9 mph - - Rain Light Drizzle
10:00 AM 41.0 °F 36.4 °F 41.0 °F 100% 30.31 in 8.0 mi East 6.9 mph - N/A   Overcast
10:34 AM 41.0 °F 35.2 °F 41.0 °F 100% 30.32 in 4.0 mi East 9.2 mph - N/A   Overcast
11:00 AM 41.0 °F 35.2 °F 41.0 °F 100% 30.33 in 3.0 mi East 9.2 mph - N/A   Overcast
12:00 PM 42.8 °F 38.6 °F 41.0 °F 93% 30.33 in 6.0 mi East 6.9 mph - N/A   Overcast
12:28 PM 42.8 °F 39.3 °F 41.0 °F 93% 30.35 in 3.0 mi East 5.8 mph - N/A   Light Drizzle
12:58 PM 42.8 °F 38.0 °F 41.0 °F 93% 30.35 in 2.0 mi East 8.1 mph - N/A   Light Drizzle
1:00 PM 42.8 °F 38.0 °F 41.0 °F 93% 30.35 in 2.0 mi East 8.1 mph - N/A   Light Drizzle
1:22 PM 42.8 °F 38.6 °F 41.0 °F 93% 30.35 in 4.0 mi East 6.9 mph - N/A   Light Drizzle
2:00 PM 42.8 °F 39.3 °F 41.0 °F 93% 30.37 in 4.0 mi East 5.8 mph - N/A   Light Drizzle
3:00 PM 42.8 °F 39.3 °F 41.0 °F 93% 30.38 in 4.0 mi East 5.8 mph - N/A   Light Drizzle
4:00 PM 42 °F - 42 °F 98% 30.38 in 4 mi East 8.1 mph - - Rain Light Drizzle
4:00 PM 42.8 °F 38.0 °F 41.0 °F 93% 30.38 in 4.0 mi East 8.1 mph - N/A   Light Drizzle
4:36 PM 42.8 °F 38.6 °F 41.0 °F 93% 30.38 in 6.0 mi East 6.9 mph - N/A   Overcast
5:00 PM 42.8 °F 38.0 °F 41.0 °F 93% 30.38 in 10.0 mi East 8.1 mph - N/A   Overcast
6:00 PM 42.8 °F 38.6 °F 41.0 °F 93% 30.39 in 10.0 mi East 6.9 mph - N/A   Overcast
7:00 PM 42.8 °F 39.3 °F 41.0 °F 93% 30.40 in 10.0 mi East 5.8 mph - N/A   Overcast
7:12 PM 42.8 °F 39.3 °F 41.0 °F 93% 30.40 in 8.0 mi East 5.8 mph - N/A   Light Drizzle
8:00 PM 42.8 °F 38.0 °F 41.0 °F 93% 30.40 in 8.0 mi ENE 8.1 mph - N/A   Light Drizzle
8:32 PM 42.8 °F 38.0 °F 42.8 °F 100% 30.40 in 8.0 mi East 8.1 mph - N/A   Overcast
9:00 PM 42.8 °F 37.5 °F 42.8 °F 100% 30.39 in 10.0 mi ENE 9.2 mph - N/A   Overcast
9:35 PM 42.8 °F 39.3 °F 42.8 °F 100% 30.40 in 10.0 mi East 5.8 mph - N/A   Overcast
10:00 PM 43 °F - 42 °F 95% 30.40 in 10 mi East 5.8 mph - -   Partly Cloudy
10:00 PM 42.8 °F 38.6 °F 42.8 °F 100% 30.40 in 10.0 mi East 6.9 mph - N/A   Overcast
10:55 PM 42.8 °F - 42.8 °F 100% 30.42 in 6.0 mi East 2.3 mph - N/A   Light Drizzle
11:00 PM 42.8 °F 41.1 °F 42.8 °F 100% 30.43 in 6.0 mi East 3.5 mph - N/A   Light Drizzle